Regional Weather Roundup
Issued by NWS

Home | Current Version | Previous Version | Text Only | Print | Product List | Glossary Off
Versions: 1 2 3 4 5 6 7 8 9 10 11 12 13 14 15 16 17 18 19 20 21 22 23 24 25 26 27 28 29 30 31 32 33 34 35 36 37 38 39 40 41 42 43 44 45 46 47 48 49 50

000
ASUS43 KLOT 270512
RWRIL

ILLINOIS REGIONAL WEATHER ROUNDUP
NATIONAL WEATHER SERVICE CHICAGO/ROMEOVILLE IL
1200 AM CDT FRI MAR 27 2015

NOTE: "FAIR" INDICATES FEW OR NO CLOUDS BELOW 12,000 FEET WITH NO
SIGNIFICANT WEATHER AND/OR OBSTRUCTIONS TO VISIBILITY.

* THESE STATIONS ARE NOT UNDER NWS QUALITY CONTROL. THEY ALSO MAY NOT
  REPORT WEATHER SUCH AS PRECIPITATION OR FOG.

ILZ001-002-007-009-015-016-024-270600-
NORTHWEST ILLINOIS

CITY           SKY/WX    TMP DP  RH WIND       PRES   REMARKS
MOLINE         CLOUDY    31  21  66 NW12      30.13R WCI  22
STERLING*      CLOUDY    34  21  60 N7        30.11R WCI  28
SAVANNA*       CLOUDY    34  21  59 NW5       30.12R WCI  30
$$

ILZ003-004-008-010-011-017-018-270600-
NORTH CENTRAL ILLINOIS

CITY           SKY/WX    TMP DP  RH WIND       PRES   REMARKS
ROCKFORD       FLURRIES  32  17  54 N14       30.12R WCI  22
FREEPORT*      CLOUDY    31  20  65 N12G17    30.13R WCI  21
ROCHELLE*      CLOUDY    31  20  63 NE14      30.10R WCI  21
DE KALB*       CLOUDY    30  20  67 N9        30.09R WCI  21
PERU*          CLOUDY    33  25  74 NW9       30.09S WCI  25
$$

ILZ005-006-012>014-019>023-270600-
NORTHEAST ILLINOIS

CITY           SKY/WX    TMP DP  RH WIND       PRES   REMARKS
CHICAGO-OHARE  CLOUDY    32  17  54 N16G23    30.07R WCI  21
CHICAGO-MIDWAY CLOUDY    35  18  49 N15       30.07S WCI  25
AURORA         CLOUDY    33  20  58 N12       30.08R WCI  24
LANSING*       FLURRIES  33  23  67 N8G18     30.06S WCI  25
JOLIET*        CLOUDY    35  23  61 N9        30.07S WCI  28
WAUKEGAN       CLOUDY    30  18  60 N8        30.08R WCI  22
DUPAGE AIRPORT CLOUDY    32  17  54 N12       30.07R WCI  23
KANKAKEE*      CLOUDY    35  27  73 N3        30.06R
WHEELING       CLOUDY    31  16  54 N10G18    30.10R WCI  22
MORRIS*        CLOUDY    32  23  68 NW7       30.06S WCI  26
ROMEOVILLE*    CLOUDY    33  21  62 N14       30.07R WCI  23
NORTHERLY ISL    N/A     33  19  56 N13         N/A  WCI  24
$$

LMZ740>746-270600-
SOUTHERN LAKE MICHIGAN

STATION/POSITION SKY/WX   TEMP    WIND        PRES    VSBY  WAVE
                          AIR SEA DIR/SP/G                  HT/PER
                          (F)     (DEG/KT/KT) (MB)    (MI)  (FT/S)
HARRISON CRIB              33     350/ 21/ 25   N/A
BURNHAM HARBOR             34     320/ 12/ 18   N/A
CALUMET HARBOR             33     340/ 12/ 17 1017.0R
BURNS HARBOR               34     360/ 15/ 19 1018.3R
MICHIGAN CITY              32     340/ 19/ 21   N/A
$$

ILZ025>027-034>036-040-047-049-050-058-095>099-270600-
WEST-CENTRAL ILLINOIS

CITY           SKY/WX    TMP DP  RH WIND       PRES   REMARKS
QUINCY         CLOUDY    36  26  67 NE13      30.11R WCI  27
GALESBURG*     PTCLDY    29  23  79 N9        30.12S WCI  20
MACOMB*        CLOUDY    32  26  78 N9        30.14S WCI  25
JACKSONVILLE*  CLOUDY    39  27  63 N10       30.09S WCI  32
PITTSFIELD*    CLOUDY    39  28  63 N12       30.11R WCI  32
$$

ILZ028>032-037-038-041>044-048-051>054-059>061-270600-
CENTRAL ILLINOIS

CITY           SKY/WX    TMP DP  RH WIND       PRES   REMARKS
PONTIAC        CLOUDY    33  29  85 NW3       30.08S
BLOOMINGTON    CLOUDY    33  27  79 N8        30.07S WCI  26
DECATUR        PTCLDY    36  26  67 N13       30.05S WCI  27
PEORIA         CLOUDY    34  23  64 N8        30.11R WCI  27
LACON*         CLOUDY    32  23  68 N3        30.10R
LINCOLN*       PTCLDY    35  28  75 NW5       30.09S WCI  31
SPRINGFIELD    MOCLDY    37  25  61 N12       30.09R WCI  29
TAYLORVILLE    MOCLDY    36  28  75 N15       30.05F WCI  26
$$

ILZ033-039-045-046-055>057-062-063-270600-
EAST-CENTRAL ILLINOIS

CITY           SKY/WX    TMP DP  RH WIND       PRES   REMARKS
CHAMPAIGN      PTCLDY    31  25  78 N8        30.03S WCI  23
DANVILLE*      CLEAR     31  26  80 N7        30.00S WCI  24
RANTOUL*       CLEAR     35  27  74 N10       30.04R WCI  27
MATTOON        PTCLDY    33  28  81 N7        30.01F WCI  27
PARIS*         CLEAR     33  28  80 N3        30.03S
$$

ILZ079-100>102-270600-
SOUTHWEST ILLINOIS

CITY           SKY/WX    TMP DP  RH WIND       PRES   REMARKS
ALTON          PTCLDY    38  28  68 NW5       30.05F WCI  34
BELLEVILLE     CLEAR     37  29  71 NW6       30.04S WCI  32
CAHOKIA*       CLEAR     34  30  85 CALM      30.05F
SPARTA*        CLEAR     38  31  77 CALM      30.05S
$$

ILZ064>066-069>071-074>076-080>082-084>086-088>090-092>094-270600-
SOUTH-CENTRAL ILLINOIS

CITY           SKY/WX    TMP DP  RH WIND       PRES   REMARKS
CARBONDALE     CLEAR     34  31  88 CALM      30.05S
CAIRO*         CLEAR     38  34  85 CALM      30.06S
EFFINGHAM*     PTCLDY    35  27  72 CALM      30.04S
MARION         CLEAR     34  32  93 CALM      30.05S
MT. VERNON     CLEAR     30  27  86 CALM      30.04S
CENTRALIA*     FAIR      37  30  75 NW3       30.03S
SALEM*         CLEAR     39  30  71 CALM      30.04S
METROPOLIS*    CLEAR     34  34 100 CALM      30.04F
$$

ILZ067-068-072-073-078-083-087-091-270600-
SOUTHEAST ILLINOIS

CITY           SKY/WX    TMP DP  RH WIND       PRES   REMARKS
LAWRENCEVILLE  CLEAR     36  31  82 NW3       30.03S
FLORA*         CLEAR     37  30  75 NW3       30.03S
FAIRFIELD*     CLEAR     35  31  84 CALM      30.03S
HARRISBURG*    CLEAR     34  33  98 E5        30.05S WCI  30
ROBINSON*      CLEAR     33  32  96 CALM      30.04S
CARMI*         CLEAR     36  35  97 CALM      30.03S
$$

ABBREVIATIONS USED IN REMARKS
   TC - TEMPERATURE IN CELSIUS
  WCI - WIND CHILL INDEX
   HX - HEAT INDEX
  VSB - VISIBILITY
$$



USA.gov is the U.S. government's official web portal to all federal, state and local government web resources and services.